Lincoln, IL

2:27 AM CST on January 19, 2018 (GMT -0600)
Lincoln

Weather History for KAAA - September, 2013

Change the Weather History Date:

Tuesday, September 3, 2013

  Actual Average (KSPI) Record (KSPI)
Temperature  
Mean Temperature 68 °F -  
Max Temperature 79 °F 82 °F 100 °F (2011)
Min Temperature 56 °F 61 °F 40 °F (1952)
Cooling Degree Days 2    
Growing Degree Days 18 (Base 50)    
Moisture  
Dew Point 57 °F    
Average Humidity 75    
Maximum Humidity 96    
Minimum Humidity 42    
Precipitation  
Precipitation 0.00 in - - ()
Sea Level Pressure  
Sea Level Pressure 30.03 in    
Wind  
Wind Speed 1 mph (North)    
Max Wind Speed 8 mph    
Max Gust Speed -    
Visibility 10 miles    
Events      
Averages and records for this station are not official NWS values.
T = Trace of Precipitation, MM = Missing Value Source: NWS Daily Summary

Daily Weather History Graph

Daily Weather History Graph

Search for Another Location

Airport or City:

Trip Planner

Search our weather history database for the weather conditions in past years. The results will help you decide how hot, cold, wet, or windy it might be!

Date:

Astronomy

Sep. 03, 2013 Rise Set
Actual Time 6:27 AM CDT 7:25 PM CDT
Civil Twilight 5:59 AM CDT 7:53 PM CDT
Nautical Twilight 5:26 AM CDT 8:25 PM CDT
Astronomical Twilight 4:51 AM CDT 9:00 PM CDT
Moon 4:40 AM CDT (9/3) 6:12 PM CDT (9/3)
Length of Visible Light 13h 53m
Length of Day
12h 58m
Waning Crescent, 3% of the Moon is Illuminated
Sep 3
Waning Crescent
Sep 5
New
Sep 12
First Quarter
Sep 19
Full
Sep 26
Last Quarter

Hourly Weather History & Observations

Time (CDT) Temp. Dew Point Humidity Pressure Visibility Wind Dir Wind Speed Gust Speed Precip Events Conditions
12:15 AM 62.2 °F 56.8 °F 82% 29.97 in 10.0 mi North 3.5 mph - N/A   Clear
12:35 AM 61.9 °F 57.2 °F 85% 29.97 in 10.0 mi Calm Calm - N/A   Clear
12:54 AM 62.6 °F 57.2 °F 82% 29.98 in 10.0 mi North 3.5 mph - N/A   Clear
12:55 AM 61.7 °F 57.0 °F 85% 29.98 in 10.0 mi North 3.5 mph - N/A   Clear
1:14 AM 60.8 °F 57.2 °F 88% 29.98 in 10.0 mi Calm Calm - N/A   Clear
1:15 AM 60.3 °F 56.7 °F 88% 29.98 in 10.0 mi Calm Calm - N/A   Clear
1:34 AM 60.8 °F 57.2 °F 88% 29.98 in 10.0 mi Calm Calm - N/A   Clear
1:35 AM 60.1 °F 57.0 °F 90% 29.98 in 10.0 mi Calm Calm - N/A   Clear
1:54 AM 60.8 °F 57.2 °F 88% 29.98 in 10.0 mi Calm Calm - N/A   Clear
1:55 AM 59.9 °F 57.0 °F 90% 29.98 in 10.0 mi Calm Calm - N/A   Clear
2:14 AM 60.8 °F 57.2 °F 88% 29.99 in 10.0 mi Calm Calm - N/A   Clear
2:15 AM 59.9 °F 57.2 °F 91% 29.99 in 10.0 mi Calm Calm - N/A   Clear
2:34 AM 59.0 °F 57.2 °F 94% 29.99 in 10.0 mi Calm Calm - N/A   Clear
2:35 AM 59.4 °F 56.7 °F 91% 29.99 in 10.0 mi Calm Calm - N/A   Clear
2:54 AM 59.0 °F 57.2 °F 94% 30.00 in 10.0 mi Calm Calm - N/A   Clear
2:55 AM 59.0 °F 56.5 °F 91% 30.00 in 10.0 mi Calm Calm - N/A   Clear
3:15 AM 58.3 °F 56.3 °F 93% 30.00 in 10.0 mi Calm Calm - N/A   Clear
3:34 AM 57.2 °F 55.4 °F 94% 30.00 in 10.0 mi North 3.5 mph - N/A   Clear
3:35 AM 58.3 °F 56.3 °F 93% 30.00 in 10.0 mi Calm Calm - N/A   Clear
3:54 AM 57.2 °F 55.4 °F 94% 30.01 in 10.0 mi Calm Calm - N/A   Clear
3:55 AM 57.6 °F 55.8 °F 94% 30.01 in 10.0 mi Calm Calm - N/A   Clear
4:15 AM 57.2 °F 55.4 °F 94% 30.01 in 10.0 mi Calm Calm - N/A   Clear
4:34 AM 57.2 °F 55.4 °F 94% 30.01 in 10.0 mi Calm Calm - N/A   Clear
4:35 AM 57.2 °F 55.8 °F 95% 30.01 in 10.0 mi Calm Calm - N/A   Clear
4:55 AM 56.7 °F 55.2 °F 95% 30.02 in 10.0 mi Calm Calm - N/A   Scattered Clouds
5:15 AM 57.7 °F 56.3 °F 95% 30.02 in 10.0 mi Calm Calm - N/A   Overcast
5:34 AM 57.2 °F 55.4 °F 94% 30.04 in 10.0 mi Calm Calm - N/A   Scattered Clouds
5:35 AM 57.4 °F 55.8 °F 94% 30.04 in 10.0 mi Calm Calm - N/A   Scattered Clouds
5:55 AM 56.5 °F 54.9 °F 94% 30.05 in 10.0 mi Calm Calm - N/A   Clear
6:15 AM 56.3 °F 54.9 °F 95% 30.05 in 7.0 mi Calm Calm - N/A   Mostly Cloudy
6:35 AM 57.4 °F 56.3 °F 96% 30.05 in 10.0 mi Calm Calm - N/A   Overcast
6:55 AM 58.5 °F 57.4 °F 96% 30.06 in 7.0 mi North 3.5 mph - N/A   Overcast
7:15 AM 60.3 °F 58.8 °F 95% 30.07 in 7.0 mi Calm Calm - N/A   Mostly Cloudy
7:35 AM 60.1 °F 58.5 °F 94% 30.07 in 7.0 mi Calm Calm - N/A   Scattered Clouds
7:55 AM 62.1 °F 59.9 °F 93% 30.07 in 5.0 mi Calm Calm - N/A   Clear
8:15 AM 64.4 °F 60.4 °F 87% 30.07 in 10.0 mi Calm Calm - N/A   Clear
8:35 AM 66.6 °F 59.7 °F 79% 30.07 in 10.0 mi Calm Calm - N/A   Scattered Clouds
8:55 AM 68.0 °F 58.6 °F 72% 30.07 in 10.0 mi Calm Calm - N/A   Clear
9:15 AM 68.9 °F 58.3 °F 69% 30.07 in 10.0 mi Calm Calm - N/A   Clear
9:35 AM 70.2 °F 58.1 °F 65% 30.07 in 10.0 mi Calm Calm - N/A   Clear
9:55 AM 71.2 °F 57.7 °F 62% 30.08 in 10.0 mi Calm Calm - N/A   Clear
10:15 AM 72.1 °F 57.9 °F 61% 30.08 in 10.0 mi SE 3.5 mph - N/A   Scattered Clouds
10:35 AM 71.2 °F 56.7 °F 60% 30.07 in 10.0 mi Calm Calm - N/A   Scattered Clouds
10:55 AM 72.1 °F 57.2 °F 59% 30.08 in 10.0 mi Calm Calm - N/A   Scattered Clouds
11:15 AM 72.1 °F 56.5 °F 58% 30.09 in 10.0 mi Calm Calm - N/A   Mostly Cloudy
11:35 AM 72.5 °F 56.7 °F 57% 30.09 in 10.0 mi Calm Calm - N/A   Overcast
11:55 AM 75.2 °F 56.8 °F 53% 30.08 in 10.0 mi ENE 3.5 mph - N/A   Mostly Cloudy
12:15 PM 75.7 °F 57.2 °F 52% 30.08 in 10.0 mi Calm Calm - N/A   Mostly Cloudy
12:35 PM 73.9 °F 57.4 °F 56% 30.08 in 10.0 mi North 4.6 mph - N/A   Mostly Cloudy
12:55 PM 76.3 °F 57.2 °F 52% 30.07 in 10.0 mi Calm Calm - N/A   Scattered Clouds
1:15 PM 75.2 °F 57.0 °F 53% 30.06 in 10.0 mi North 8.1 mph - N/A   Mostly Cloudy
1:35 PM 77.0 °F 57.4 °F 51% 30.05 in 10.0 mi Calm Calm - N/A   Mostly Cloudy
1:55 PM 76.6 °F 56.5 °F 50% 30.05 in 10.0 mi WNW 6.9 mph - N/A   Scattered Clouds
2:15 PM 77.9 °F 55.9 °F 47% 30.05 in 10.0 mi NW 3.5 mph - N/A   Clear
2:35 PM 78.1 °F 54.5 °F 44% 30.04 in 10.0 mi Calm Calm - N/A   Clear
2:55 PM 79.2 °F 54.5 °F 42% 30.03 in 10.0 mi Calm Calm - N/A   Clear
3:15 PM 79.0 °F 55.8 °F 45% 30.02 in 10.0 mi Calm Calm - N/A   Scattered Clouds
3:35 PM 78.8 °F 55.8 °F 45% 30.02 in 10.0 mi WNW 4.6 mph - N/A   Clear
3:55 PM 76.5 °F 56.1 °F 49% 30.02 in 10.0 mi North 4.6 mph - N/A   Clear
4:15 PM 79.0 °F 55.2 °F 44% 30.01 in 10.0 mi Calm Calm - N/A   Clear
4:35 PM 77.9 °F 55.2 °F 45% 30.01 in 10.0 mi Calm Calm - N/A   Clear
4:55 PM 75.6 °F 57.4 °F 53% 30.01 in 10.0 mi Calm Calm - N/A   Clear
5:15 PM 77.2 °F 56.8 °F 49% 30.02 in 10.0 mi North 4.6 mph - N/A   Clear
5:35 PM 77.9 °F 55.9 °F 47% 30.01 in 10.0 mi Calm Calm - N/A   Clear
5:55 PM 77.7 °F 55.6 °F 46% 30.01 in 10.0 mi Calm Calm - N/A   Clear
6:15 PM 76.3 °F 56.3 °F 50% 30.01 in 10.0 mi Calm Calm - N/A   Clear
6:35 PM 76.1 °F 55.8 °F 49% 30.01 in 10.0 mi Calm Calm - N/A   Clear
6:55 PM 74.5 °F 59.5 °F 60% 30.01 in 10.0 mi Calm Calm - N/A   Clear
7:15 PM 72.5 °F 60.6 °F 66% 30.02 in 10.0 mi Calm Calm - N/A   Clear
7:35 PM 70.7 °F 60.4 °F 70% 30.02 in 10.0 mi Calm Calm - N/A   Clear
7:55 PM 69.3 °F 60.3 °F 73% 30.02 in 10.0 mi Calm Calm - N/A   Clear
8:15 PM 67.3 °F 60.1 °F 78% 30.03 in 10.0 mi Calm Calm - N/A   Clear
8:35 PM 65.8 °F 59.9 °F 81% 30.03 in 10.0 mi Calm Calm - N/A   Clear
8:55 PM 65.1 °F 59.5 °F 82% 30.04 in 10.0 mi Calm Calm - N/A   Clear
9:15 PM 63.5 °F 58.5 °F 84% 30.04 in 10.0 mi Calm Calm - N/A   Clear
9:35 PM 64.0 °F 58.5 °F 82% 30.05 in 10.0 mi Calm Calm - N/A   Clear
9:55 PM 64.0 °F 58.3 °F 82% 30.05 in 10.0 mi Calm Calm - N/A   Clear
10:15 PM 63.5 °F 57.9 °F 82% 30.05 in 10.0 mi Calm Calm - N/A   Clear
10:35 PM 62.6 °F 57.7 °F 84% 30.04 in 10.0 mi Calm Calm - N/A   Clear
10:55 PM 62.6 °F 57.4 °F 83% 30.04 in 10.0 mi Calm Calm - N/A   Clear
11:15 PM 61.7 °F 56.7 °F 84% 30.05 in 10.0 mi Calm Calm - N/A   Clear
11:35 PM 60.6 °F 56.8 °F 87% 30.05 in 10.0 mi Calm Calm - N/A   Clear
11:55 PM 58.5 °F 54.9 °F 88% 30.05 in 10.0 mi Calm Calm - N/A   Clear